Tracking 24122 objects as of 9-Dec-2021
HD Live streaming from Space Station
objects crossing your sky now

OPS 4682 DEB

Track OPS 4682 DEB now!
10-day predictions


NORAD ID: 38414
Int'l Code: 1965-027DT
Perigee: 1,250.5 km
Apogee: 1,311.6 km
Inclination: 90.3 °
Period: 111.0 minutes
Semi major axis: 7652 km
RCS: 0.0071 m2 (small)
Launch date: April 3, 1965
Source: United States (US)
Launch site: AIR FORCE WESTERN TEST RANGE (AFWTR)

Note: This is SATELLITE DEBRIS
aabbcc
Your satellite tracking list
Your tracking list is empty




NASA's NSSDC Master Catalog

Two Line Element Set (TLE):
1 38414U 65027DT  21340.68910883  .00000532  00000-0  18138-2 0  9996
2 38414  90.2848 313.6364 0039953 142.5480 217.8437 12.96993690926498
Source of the keplerian elements: AFSPC